COSMOS 1275 DEB, 42120

Orbit data source: Space-Track

COSMOS 1275 DEB, 42120 is space debris in LEO originally from a launch on Thu, 04 Jun 1981 UTC launched from the Plesetsk Missile And Space Complex (PKMTR). Debris objects in space refer to the collection of defunct objects orbiting the Earth. Examples of debris include non-operational satellites, rocket bodies, and fragments generated from explosions, collisions, or faulty payload assembly.

Loading next visibility...
Identifier
42120, 1981-053QG
Orbit
LEO
Country
Flag of CISCIS
Related business
Manufacturer
Unknown
Mission
Spacecraft
Bus & Motor
Unknown
Mass
Unknown
Launch date (UTC)
1981-06-04 (44 years ago)
Launch vehicle
Unknown
Launch site
Plesetsk Missile And Space Complex (PKMTR)
Object type
Payload
Rocket body
Debris
Shape & HBR
Unknown shape, 0.1 m
Radar Cross Section
Small (<0.1 m²)

Expand to show TLE details & history
Last TLE update: 2 months ago

TLE from 2 months ago
0 COSMOS 1275 DEB
1 42120U 81053QG  25241.74917552  .00000865  00000-0  10477-2 0  9990
2 42120  82.9225 256.1631 0193044  75.0853 287.1580 13.57664330581814
Epoch: 2025-08-29T17:58Z
TLE epoch observation values (Epoch: 2025-08-29T17:58:48.764Z)
Latitude
-0.00005°
Longitude
8.26655°
Altitude
1,007.337 km
Speed
7.368 km/s
True Right ascension
17h 04m 39s
True Declination
0° 00' 00"
Sunlit
Object was in daylight at epoch
Visualization orbit readout
Latitude
Unknown
Longitude
Unknown
Altitude
Unknown
Speed
Unknown
Apparent Right ascension
Unknown
Apparent Declination
Unknown
Sunlit
N/A
Visualization observer readout
Local Sidereal Time
01:34:31
Azimuth
Unknown
Elevation
Unknown
Doppler factor
Unknown
Orbital elements
Apogee altitude
1,184.594 km
Perigee altitude
898.136 km
Semi-major axis
7,419.502 km
Eccentricity
0.0193
Inclination
82.9225°
RAAN
256.1631°
Arg. of periapsis
75.0853°
True anomaly
285.02967°
Mean anomaly
287.158°
Eccentric anomaly
286.09529°
Mean motion
3.3961 °/min
Orbital period
106 mins
BSTAR
0.0010477
Loading maneuver chart data...
Computing Atmospheric mass density...
Loading historical data...
Loading historical data...
Loading historical data...
Loading historical data...
Loading historical data...
Loading historical data...
Loading historical data...

Documentation

Showing up to 5 results
|